Weather Roundup
Issued by NWS

Home | Current Version | Previous Version | Text Only | Print | Product List | Glossary On
Versions: 1 2 3 4 5 6 7 8 9 10 11 12 13 14 15 16 17 18 19 20 21 22 23 24 25 26 27 28 29 30 31 32 33 34 35 36 37 38 39 40 41 42 43 44 45 46 47 48 49 50
000
NZUS93 KARX 190310
HRRWXR

CURRENT HOURLY OBSERVATIONS ACROSS
MUCH OF THE UPPER MISSISSIPPI VALLEY
NATIONAL WEATHER SERVICE LA CROSSE WI
900 PM CST SAT NOV 18 2017


...SOUTHEAST MINNESOTA...


CITY           SKY/WX    TMP DP  RH WIND       PRES   REMARKS
ROCHESTER      MOCLDY    24  18  77 NW22G29   29.96R WCI   9
ROCHESTER/MAYO MOCLDY    26  17  70 NW17G29   29.96R WCI  13
WINONA           N/A     30  19  64 NW20G28   29.95R WCI  18
AUSTIN         CLEAR     23  16  74 NW15G22   29.99R WCI  10
ALBERT LEA     CLEAR     23  14  68 NW14G20   30.01S WCI  11
DODGE CENTER   PTCLDY    21  16  79 NW18G25   29.97S WCI   6
PRESTON        CLEAR     25  18  75 NW17      29.94R WCI  11
OWATONNA       CLEAR     21  16  79 NW18      30.01R WCI   6
FARIBAULT      CLEAR     21  14  73 W15       30.02R WCI   8
$$

...ELSEWHERE IN MINNESOTA...


CITY           SKY/WX    TMP DP  RH WIND       PRES   REMARKS
MINNEAPOLIS    CLEAR     22  12  65 NW20G25   30.02R WCI   7
INTNL FALLS    CLOUDY    16   7  67 W8        29.92F WCI   5
DULUTH         CLOUDY    17  10  74 NW9       29.89R WCI   6
RED WING       CLOUDY    27  12  54 NW10G18   29.98R WCI  17
REDWOOD FALLS  CLEAR     22  10  60 NW10      30.08S WCI  11
MANKATO        CLEAR     23  14  68 NW14G22   30.05  WCI  11
WORTHINGTON    CLEAR     23  15  71 NW12      30.08R WCI  12
FAIRMONT       NOT AVBL
$$

...SOUTHWEST WISCONSIN...


CITY           SKY/WX    TMP DP  RH WIND       PRES   REMARKS
LA CROSSE      PTCLDY    32  20  61 NW20G25   29.91R WCI  20
PRAIRIE DU CHI CLEAR     32  20  61 NW14      29.93R WCI  22
BOSCOBEL       MOCLDY    35  21  56 N15G23    29.90R WCI  25
LONE ROCK      CLOUDY    34  24  67 NW15G28   29.87R WCI  24
PLATTEVILLE    CLOUDY    33  27  78 NW17G23   29.87R WCI  23
FORT MC COY    CLOUDY    31  21  67 NW15      29.90R WCI  20
CAMP DOUGLAS   CLOUDY   N/A N/A N/A NW18G32   29.87R
MAUSTON-NEW LI CLOUDY    32  20  62 NW18G29   29.85R WCI  20
VIROQUA        CLOUDY    29  22  74 NW16G23   29.87R WCI  17
WIS DELLS      CLOUDY    32  21  64 NW16G25   29.83R WCI  21
$$

...ELSEWHERE IN WISCONSIN...


CITY           SKY/WX    TMP DP  RH WIND       PRES   REMARKS
MILWAUKEE      CLOUDY    39  28  64 N13G23    29.74R WCI  31
MADISON        CLOUDY    34  24  67 NW18G31   29.81R WCI  23
GREEN BAY      CLOUDY    34  27  75 NW10      29.76R WCI  26
EAU CLAIRE     PTCLDY    25  14  63 NW15G23   29.92R WCI  13
BLACK RVR FLS  CLOUDY    30  16  56 NW8       29.89R WCI  22
MEDFORD        CLOUDY    25  17  72 NW12G22   29.83R WCI  14
WAUSAU         CLOUDY    28  20  71 NW13G23   29.80R WCI  17
WIS RAPIDS     CLOUDY    31  20  63 NW14G24   29.83R WCI  21
MARSHFIELD     CLOUDY    28  18  66 NW22G31   29.82R WCI  14
RICE LAKE      CLOUDY    25  16  68 W9        29.94R WCI  15
$$

...NORTHEAST IOWA...


CITY           SKY/WX    TMP DP  RH WIND       PRES   REMARKS
WATERLOO       CLEAR     27  17  66 NW21G31   30.00R WCI  13
DUBUQUE        CLOUDY    32  23  69 NW17G29   29.89R WCI  21
DECORAH        MOCLDY    28  21  74 NW17G25   29.92R WCI  16
MASON CITY     CLEAR     24  14  65 NW22G28   30.04R WCI   9
CHARLES CITY   CLEAR     27  18  69 NW21G32   30.00R WCI  13
OELWEIN        PTCLDY    28  23  80 NW23G32   29.97R WCI  14
$$

...ELSEWHERE IN IOWA...


CITY           SKY/WX    TMP DP  RH WIND       PRES   REMARKS
DES MOINES     CLEAR     33  19  56 NW17G25   30.09R WCI  22
IOWA CITY      CLEAR     33  23  66 NW15G26   30.00R WCI  23
FORT DODGE     CLEAR     27  20  75 VRB6      30.09R WCI  20
MARSHALLTOWN   CLEAR     29  19  66 NW24G32   30.04R WCI  15
CEDAR RAPIDS   CLEAR     30  22  72 NW18G30   29.97R WCI  18
$$

...NORTHERN ILLINOIS...


CITY           SKY/WX    TMP DP  RH WIND       PRES   REMARKS
CHICAGO-OHARE  CLOUDY    39  30  70 NW16      29.75R WCI  30
CHICAGO-MIDWAY CLOUDY    40  30  67 NW17G28   29.77R WCI  31
MOLINE         CLOUDY    35  25  66 NW20G30   29.92R WCI  24
ROCKFORD       CLOUDY    36  29  75 NW13      29.83R WCI  27
PEORIA         PTCLDY    37  32  82 NW14G24   29.89R WCI  28
$$

NOTE: "FAIR" INDICATES FEW OR NO CLOUDS BELOW 12,000 FEET WITH NO
SIGNIFICANT WEATHER AND/OR OBSTRUCTIONS TO VISIBILITY. WIND
SPEEDS ARE IN MILES-PER-HOUR.




USA.gov is the U.S. government's official web portal to all federal, state and local government web resources and services.